F4AMY-13 Weather Reports


Display with metric or nautical units.
time (UTC)temp
F
wind
direction
speed
MPH
gust
MPH
rain 1hr
in
rain 24hr
in
rain mn
in
humidity
%
barometer
mb
20260510054613 56 244 0.0 0.0 0.00 5.70 5.70 95 1009.2
20260510054113 56 256 0.0 0.0 0.00 5.70 5.70 95 1009.1
20260510053613 56 268 0.0 0.0 0.00 5.70 5.70 95 1009.2
20260510053113 56 252 0.0 0.0 0.00 5.70 5.70 95 1009.3
20260510052613 56 249 0.0 0.0 0.00 5.70 5.70 95 1009.1
20260510052113 56 249 0.0 0.0 0.00 5.70 5.70 95 1009.2
20260510051613 56 243 0.0 0.0 1.80 5.70 5.70 95 1009.3
20260510051113 56 247 0.0 0.0 1.80 5.70 5.70 95 1009.1
20260510050613 56 242 0.0 0.0 0.00 5.40 5.40 95 1009.2
20260510050113 56 251 0.0 0.0 0.00 5.40 5.40 95 1009.1
20260510045613 56 260 0.0 0.0 0.00 5.40 5.40 95 1009.2
20260510045112 56 260 0.0 0.0 1.80 5.40 5.40 94 1009.2
20260510044612 56 261 0.0 0.0 3.60 5.40 5.40 94 1009.3
20260510044112 56 264 0.0 0.0 1.80 5.09 5.09 94 1009.2
20260510043613 56 275 0.0 0.0 1.80 4.80 4.80 94 1009.1
20260510043112 56 261 0.0 0.0 1.80 4.80 4.80 94 1009.2
20260510042612 56 255 0.0 0.0 0.00 4.50 4.50 94 1009.1
20260510042112 56 255 0.0 0.0 0.00 4.50 4.50 94 1009.3
20260510041612 56 255 0.0 0.0 0.00 4.50 4.50 94 1009.3
20260510041112 56 255 0.0 0.0 0.00 4.50 4.50 94 1009.4
20260510040612 56 255 0.0 0.0 0.00 4.50 4.50 94 1009.0
20260510040112 56 247 0.0 0.0 0.00 4.50 4.50 94 1009.3
20260510035612 56 266 0.0 0.0 1.80 4.50 4.50 94 1009.3
20260510035112 56 263 0.0 0.0 3.60 4.50 4.50 94 1009.4
20260510034612 56 260 0.0 0.0 1.80 4.20 4.20 94 1009.6
20260510034112 56 255 0.0 0.0 1.80 3.90 3.90 94 1009.4
20260510033612 56 255 0.0 0.0 1.80 3.90 3.90 94 1009.4
20260510033112 56 254 0.0 0.0 0.00 3.60 3.60 94 1009.6
20260510032611 56 247 0.0 0.0 0.00 3.60 3.60 94 1009.6
20260510032111 56 246 0.0 0.0 0.00 3.60 3.60 94 1009.9
20260510031611 56 246 0.0 0.0 0.00 3.60 3.60 94 1009.8
20260510031111 56 249 0.0 0.0 0.00 3.60 3.60 94 1009.8
20260510030611 56 260 0.0 0.0 0.00 3.60 3.60 94 1009.8
20260510030111 56 260 0.0 0.0 0.00 3.60 3.60 94 1010.0
20260510025611 56 247 0.0 0.0 0.00 3.60 3.60 94 1009.8
20260510025111 56 264 0.0 0.0 0.00 3.60 3.60 94 1009.9
20260510024611 56 260 0.0 0.0 0.00 3.60 3.60 94 1009.9
20260510024111 56 245 0.0 0.0 0.00 3.60 3.60 94 1010.2
20260510023611 56 256 0.0 0.0 1.80 3.60 3.60 94 1010.2
20260510023111 56 256 0.0 0.0 3.60 3.60 3.60 94 1010.3
20260510022611 56 256 0.0 0.0 3.60 3.30 3.30 94 1010.5
20260510022111 56 256 0.0 0.0 1.80 3.00 3.00 94 1010.5
20260510021611 56 259 0.0 0.0 0.00 2.70 2.70 94 1010.5
20260510021111 56 263 0.0 0.0 0.00 2.70 2.70 94 1010.7
20260510020611 56 252 0.0 0.0 0.00 2.70 2.70 94 1010.4
20260510020111 56 254 0.0 0.0 0.00 2.70 2.70 94 1010.3
20260510015611 56 254 0.0 0.0 0.00 2.70 2.70 94 1010.3
20260510015111 56 250 0.0 0.0 0.00 2.70 2.70 94 1010.3
20260510014610 56 260 0.0 0.0 0.00 2.70 2.70 93 1010.5
20260510014110 57 260 0.0 0.0 0.00 2.70 2.70 93 1010.3
20260510013610 57 256 0.0 0.0 0.00 2.70 2.70 93 1010.3
20260510013110 57 260 0.0 0.0 0.00 2.70 2.70 93 1010.4
20260510012610 57 261 0.0 0.0 0.00 2.70 2.70 93 1010.6
20260510012110 57 264 0.0 0.0 0.00 2.70 2.70 93 1010.5
20260510011610 57 264 0.0 0.0 0.00 2.70 2.70 93 1010.3
20260510011110 57 262 0.0 0.0 0.00 2.70 2.70 93 1010.2
20260510010610 57 262 0.0 0.0 1.80 2.70 2.70 93 1010.5
20260510010110 57 262 0.0 0.0 0.00 2.40 2.40 93 1010.4
20260510005610 57 250 0.0 0.0 0.00 2.40 2.40 93 1010.5
20260510005110 57 255 0.0 0.0 0.00 2.40 2.40 93 1010.7
20260510004610 57 257 0.0 0.0 0.00 2.40 2.40 93 1010.7
20260510004110 57 256 0.0 0.0 0.00 2.40 2.40 93 1010.6
20260510003610 57 279 0.0 0.0 0.00 2.40 2.40 92 1010.6
20260510003110 57 261 0.0 0.0 0.00 2.40 2.40 92 1010.7
20260510002610 57 254 0.0 0.0 0.00 2.40 2.40 92 1010.5
20260510002110 57 255 0.0 0.0 1.80 2.40 2.40 92 1010.5
20260510001609 57 243 0.0 0.0 1.80 2.40 2.40 92 1010.5
20260510001109 57 260 0.0 0.0 0.00 2.10 2.10 92 1010.8
20260510000609 57 259 0.0 0.0 0.00 2.10 2.10 92 1010.6
20260510000109 57 254 0.0 0.0 0.00 2.10 2.10 92 1010.4
20260509235609 57 247 0.0 0.0 0.00 2.10 2.10 92 1010.5
20260509235109 57 250 0.0 0.0 0.00 2.10 2.10 91 1010.5
20260509234609 57 259 0.0 0.0 0.00 2.10 2.10 91 1010.5
20260509234109 57 265 0.0 0.0 1.80 2.10 2.10 91 1010.6
20260509233609 57 264 0.0 0.0 1.80 2.10 2.10 91 1010.5
20260509233109 58 261 0.0 0.0 1.80 1.80 1.80 90 1010.6
20260509232609 58 261 0.0 0.0 3.60 1.80 1.80 90 1010.7
20260509232109 58 263 0.0 0.0 3.60 1.50 1.50 90 1010.8
20260509231609 58 269 0.0 0.0 3.60 1.20 1.20 89 1010.9
20260509231109 58 252 0.0 0.0 1.80 0.90 0.90 89 1010.9
20260509230609 58 251 0.0 0.0 0.00 0.60 0.60 89 1010.8
20260509230109 58 253 0.0 0.0 1.80 0.60 0.60 89 1011.1
20260509225609 58 261 0.0 0.0 0.00 0.30 0.30 88 1011.2
20260509225109 58 262 0.0 0.0 0.00 0.30 0.30 87 1011.3
20260509224609 59 263 0.0 0.0 0.00 0.30 0.30 87 1011.2
20260509224109 59 263 0.0 0.0 0.00 0.30 0.30 87 1011.3
20260509223608 59 257 0.0 0.0 1.80 0.30 0.30 86 1011.4
20260509223108 59 258 0.0 0.0 0.00 0.00 0.00 86 1011.1
20260509222608 59 271 0.0 0.0 0.00 0.00 0.00 85 1011.3
20260509222108 59 282 0.0 0.0 0.00 0.00 0.00 86 1011.3
20260509221608 60 260 0.0 0.0 0.00 0.00 0.00 85 1011.1
20260509221108 60 242 0.0 0.0 0.00 0.00 0.00 85 1011.1
20260509220608 60 263 0.0 0.0 0.00 0.00 0.00 85 1011.2
20260509220108 61 286 0.0 0.0 0.00 0.00 3.90 85 1010.8
20260509215608 61 282 0.0 0.0 0.00 0.00 3.90 84 1011.2
20260509215108 62 282 0.0 0.0 0.00 0.00 3.90 82 1011.2
20260509214608 62 259 0.0 0.0 0.00 0.00 3.90 81 1011.2
20260509214108 62 261 0.0 0.0 0.00 0.00 3.90 80 1011.2
20260509213608 63 287 0.0 0.0 0.00 0.00 3.90 78 1011.2
20260509213108 63 261 0.0 0.0 0.00 0.00 3.90 76 1011.3
20260509212608 64 258 0.0 0.0 0.00 0.00 3.90 73 1011.0
20260509212108 64 67 0.0 0.0 0.00 0.00 3.90 69 1011.0
20260509211608 64 300 0.0 0.0 0.00 0.00 3.90 69 1010.8
20260509211108 65 265 0.0 0.0 0.00 0.00 3.90 68 1010.8
20260509210608 65 272 0.0 0.0 0.00 0.00 3.90 68 1011.0
20260509210107 65 272 0.0 0.0 0.00 0.00 3.90 65 1010.8
20260509205608 65 263 0.0 0.0 0.00 0.00 3.90 64 1010.8
20260509205107 65 342 0.0 0.0 0.00 0.00 3.90 63 1010.8
20260509204607 65 356 0.0 0.0 0.00 0.00 3.90 62 1011.1
20260509204107 65 313 0.0 0.0 0.00 0.00 3.90 62 1010.8
20260509203607 65 46 3.0 7.0 0.00 0.00 3.90 61 1010.7
20260509203107 65 358 0.0 0.0 0.00 0.00 3.90 61 1010.7
20260509202607 65 284 0.0 0.0 0.00 0.00 3.90 61 1010.8
20260509202107 65 276 0.0 0.0 0.00 0.00 3.90 62 1010.7
20260509201607 65 278 0.0 0.0 0.00 0.00 3.90 62 1010.7
20260509201107 64 262 0.0 0.0 0.00 0.00 3.90 61 1010.9
20260509200607 64 295 0.0 0.0 0.00 0.00 3.90 61 1010.7
20260509200107 64 241 0.0 0.0 0.00 0.00 3.90 61 1010.5
20260509195607 64 68 0.0 7.0 0.00 0.00 3.90 61 1010.7
20260509195107 64 68 0.0 7.0 0.00 0.00 3.90 61 1010.7
20260509194607 64 342 0.0 0.0 0.00 0.00 3.90 62 1010.5
20260509194107 64 35 0.0 0.0 0.00 0.00 3.90 63 1010.7
20260509193607 65 349 0.0 7.0 0.00 0.00 3.90 62 1010.7
20260509193106 65 270 0.0 0.0 0.00 0.00 3.90 64 1010.7
20260509192606 65 268 0.0 0.0 0.00 0.00 3.90 63 1010.7
20260509192106 65 335 0.0 0.0 0.00 0.00 3.90 62 1010.4
20260509191606 65 273 0.0 0.0 0.00 0.00 3.90 60 1010.6
20260509191106 66 274 0.0 0.0 0.00 0.00 3.90 61 1010.4
20260509190606 66 274 0.0 0.0 0.00 0.00 3.90 58 1010.6
20260509190106 66 261 0.0 0.0 0.00 0.00 3.90 58 1010.5
20260509185606 66 247 0.0 0.0 0.00 0.00 3.90 59 1010.5
20260509185106 66 299 0.0 0.0 0.00 0.00 3.90 56 1010.7
20260509184606 66 261 0.0 0.0 0.00 0.00 3.90 57 1010.4
20260509184106 67 282 0.0 0.0 0.00 0.00 3.90 56 1010.3
20260509183606 67 270 0.0 0.0 0.00 0.00 3.90 56 1010.3
20260509183106 67 260 0.0 0.0 0.00 0.00 3.90 57 1010.3
20260509182606 67 265 0.0 0.0 0.00 0.00 3.90 56 1010.1
20260509182106 67 317 0.0 0.0 0.00 0.00 3.90 57 1010.1
20260509181606 68 259 0.0 0.0 0.00 0.00 3.90 57 1010.1
20260509181106 68 290 0.0 0.0 0.00 0.00 3.90 57 1009.9
20260509180606 68 279 0.0 0.0 0.00 0.00 3.90 57 1009.9
20260509180105 68 288 0.0 0.0 0.00 0.00 3.90 56 1009.9
20260509175605 68 196 0.0 0.0 0.00 0.00 3.90 56 1009.9
20260509175105 69 287 0.0 0.0 0.00 0.00 3.90 55 1010.0
20260509174605 69 270 0.0 0.0 0.00 0.00 3.90 56 1010.1
20260509174105 69 313 0.0 0.0 0.00 0.00 3.90 52 1010.0
20260509173605 69 271 0.0 0.0 0.00 0.00 3.90 53 1010.2
20260509173105 69 256 0.0 0.0 0.00 0.00 3.90 51 1010.1
20260509172605 69 278 0.0 0.0 0.00 0.00 3.90 51 1010.1
20260509172105 69 254 0.0 0.0 0.00 0.00 3.90 50 1009.9
20260509171605 69 16 3.0 15.0 0.00 0.00 3.90 51 1010.0
20260509171105 70 290 0.0 0.0 0.00 0.00 3.90 50 1010.2
20260509170605 70 269 0.0 0.0 0.00 0.00 3.90 49 1010.2
20260509170105 70 282 0.0 0.0 0.00 0.00 3.90 48 1010.2
20260509165605 70 263 0.0 0.0 0.00 0.00 3.90 49 1010.2
20260509165105 70 28 0.0 0.0 0.00 0.00 3.90 47 1010.1
20260509164605 70 283 0.0 0.0 0.00 0.00 3.90 45 1010.1
20260509164105 70 273 0.0 0.0 0.00 0.00 3.90 45 1010.3
20260509163605 70 17 0.0 7.0 0.00 0.00 3.90 44 1010.1
20260509163105 70 359 0.0 7.0 0.00 0.00 3.90 43 1010.0
20260509162605 70 307 0.0 0.0 0.00 0.00 3.90 42 1010.2
20260509162104 70 299 0.0 0.0 0.00 0.00 3.90 42 1010.3
20260509161604 70 24 0.0 7.0 0.00 0.00 3.90 41 1010.2
20260509161104 70 283 0.0 0.0 0.00 0.00 3.90 43 1010.6
20260509160604 71 354 0.0 0.0 0.00 0.00 3.90 41 1010.4
20260509160104 71 311 0.0 0.0 0.00 0.00 3.90 43 1010.4
20260509155604 71 298 0.0 0.0 0.00 0.00 3.90 43 1010.6
20260509155104 71 44 5.0 7.0 0.00 0.00 3.90 42 1010.4
20260509154604 71 306 0.0 0.0 0.00 0.00 3.90 45 1010.5
20260509154104 72 255 0.0 0.0 0.00 0.00 3.90 42 1010.5
20260509153604 72 49 0.0 7.0 0.00 0.00 3.90 39 1010.6
20260509153104 73 283 0.0 0.0 0.00 0.00 3.90 41 1010.6
20260509152604 73 288 0.0 7.0 0.00 0.00 3.90 39 1010.8
20260509152104 74 258 0.0 7.0 0.00 0.00 3.90 38 1010.8
20260509151604 75 269 0.0 0.0 0.00 0.00 3.90 38 1010.8
20260509151104 75 22 0.0 0.0 0.00 0.00 3.90 40 1010.5
20260509150604 75 297 0.0 0.0 0.00 0.00 3.90 37 1011.0
20260509150104 75 258 0.0 7.0 0.00 0.00 3.90 34 1010.9
20260509145604 75 229 0.0 0.0 0.00 0.00 3.90 36 1010.9
20260509145104 75 229 0.0 0.0 0.00 0.00 3.90 36 1010.9
20260509144604 75 31 4.0 15.0 0.00 0.00 3.90 35 1010.9
20260509144104 75 288 1.0 7.0 0.00 0.00 3.90 36 1010.9
20260509143104 74 59 1.0 7.0 0.00 0.00 3.90 37 1011.5
20260509142604 74 67 3.0 7.0 0.00 0.00 3.90 39 1011.0
20260509142104 74 14 0.0 7.0 0.00 0.00 3.90 42 1011.1
20260509141603 74 48 3.0 7.0 0.00 0.00 3.90 43 1011.2
20260509141103 74 214 0.0 0.0 0.00 0.00 3.90 44 1011.3
20260509140603 74 32 0.0 0.0 0.00 0.00 3.90 44 1011.2
20260509140103 74 65 0.0 7.0 0.00 0.00 3.90 42 1011.4
20260509135603 74 61 0.0 7.0 0.00 0.00 3.90 46 1011.4
20260509135103 74 326 0.0 0.0 0.00 0.00 3.90 45 1011.5
20260509134603 74 38 0.0 7.0 0.00 0.00 3.90 44 1011.5
20260509134103 75 359 0.0 0.0 0.00 0.00 3.90 44 1011.5
20260509133603 75 251 0.0 0.0 0.00 0.00 3.90 43 1011.6
20260509133104 75 294 0.0 0.0 0.00 0.00 3.90 44 1011.5
20260509132603 75 56 0.0 7.0 0.00 0.00 3.90 42 1011.8
20260509132103 75 279 0.0 0.0 0.00 0.00 3.90 46 1011.7
20260509131603 75 6 0.0 0.0 0.00 0.00 3.90 43 1011.8
20260509131103 75 296 0.0 0.0 0.00 0.00 3.90 42 1012.0
20260509130603 75 33 1.0 7.0 0.00 0.00 3.90 43 1012.1
20260509125603 76 339 0.0 0.0 0.00 0.00 3.90 43 1011.8
20260509125103 77 274 0.0 0.0 0.00 0.00 3.90 42 1012.0
20260509124603 77 5 0.0 0.0 0.00 0.00 3.90 44 1012.0
20260509124103 77 285 4.0 7.0 0.00 0.00 3.90 44 1012.1
20260509123602 77 274 0.0 0.0 0.00 0.00 3.90 45 1012.1
20260509123102 77 285 0.0 7.0 0.00 0.00 3.90 43 1012.1
20260509122602 77 8 0.0 0.0 0.00 0.00 3.90 40 1012.1
20260509122102 77 224 0.0 0.0 0.00 0.00 3.90 40 1012.1
20260509121602 77 326 0.0 0.0 0.00 0.00 3.90 42 1012.2
20260509121102 77 342 3.0 7.0 0.00 0.00 3.90 42 1012.3
20260509120602 77 40 5.0 7.0 0.00 0.00 3.90 42 1012.2
20260509115603 76 123 0.0 0.0 0.00 0.00 3.90 40 1012.1
20260509115102 76 264 0.0 7.0 0.00 0.00 3.90 41 1012.3
20260509114602 76 70 7.0 15.0 0.00 0.00 3.90 38 1012.5
20260509114102 76 255 0.0 0.0 0.00 0.00 3.90 42 1012.5
20260509113602 76 322 3.0 7.0 0.00 0.00 3.90 38 1012.5
20260509113102 76 108 0.0 7.0 0.00 0.00 3.90 40 1012.6
20260509112602 76 229 0.0 0.0 0.00 0.00 3.90 42 1012.7
20260509112102 76 339 0.0 7.0 0.00 0.00 3.90 36 1012.7
20260509111602 75 280 0.0 0.0 0.00 0.00 3.90 38 1012.6
20260509111102 75 254 0.0 0.0 0.00 0.00 3.90 39 1012.8
20260509110601 75 21 0.0 7.0 0.00 0.00 3.90 41 1012.8
20260509105601 74 296 0.0 7.0 0.00 0.00 3.90 42 1012.9
20260509105101 74 33 0.0 0.0 0.00 0.00 3.90 38 1012.9
20260509104601 74 34 0.0 0.0 0.00 0.00 3.90 41 1012.8
20260509104101 74 270 0.0 0.0 0.00 0.00 3.90 40 1012.8
20260509103601 74 265 0.0 0.0 0.00 0.00 3.90 42 1012.9
20260509103101 73 298 1.0 7.0 0.00 0.00 3.90 40 1013.3
20260509102601 73 270 0.0 0.0 0.00 0.00 3.90 39 1013.1
20260509102101 73 267 0.0 0.0 0.00 0.00 3.90 43 1013.2
20260509101601 73 254 0.0 0.0 0.00 0.00 3.90 40 1013.3
20260509101101 72 335 0.0 0.0 0.00 0.00 3.90 41 1013.4
20260509100601 72 246 0.0 0.0 0.00 0.00 3.90 39 1013.4
20260509100101 72 289 0.0 0.0 0.00 0.00 3.90 40 1013.4
20260509095601 72 267 0.0 0.0 0.00 0.00 3.90 43 1013.4
20260509095101 71 303 0.0 0.0 0.00 0.00 3.90 48 1013.5
20260509094601 71 308 0.0 0.0 0.00 0.00 3.90 45 1013.5
20260509094101 71 279 0.0 0.0 0.00 0.00 3.90 50 1013.3
20260509093600 71 227 0.0 0.0 0.00 0.00 3.90 48 1013.3
20260509093100 70 243 0.0 0.0 0.00 0.00 3.90 49 1013.5
20260509092600 70 342 0.0 0.0 0.00 0.00 3.90 51 1013.6
20260509092100 70 355 0.0 0.0 0.00 0.00 3.90 47 1013.7
20260509091600 69 274 0.0 0.0 0.00 0.00 3.90 51 1013.7
20260509091100 69 248 0.0 0.0 0.00 0.00 3.90 56 1013.9
20260509090600 69 266 0.0 0.0 0.00 0.00 3.90 53 1014.0
20260509090100 68 328 0.0 0.0 0.00 0.00 3.90 52 1014.0
20260509085600 68 308 0.0 0.0 0.00 0.00 3.90 48 1014.0
20260509085100 68 297 0.0 0.0 0.00 0.00 3.90 52 1013.9
20260509084600 68 298 0.0 0.0 0.00 0.00 3.90 52 1014.1
20260509084100 68 298 0.0 0.0 0.00 0.00 3.90 52 1014.1
20260509083600 68 297 0.0 0.0 0.00 0.00 3.90 52 1014.1
20260509083100 67 350 0.0 0.0 0.00 0.00 3.90 52 1014.1
20260509082600 67 2 0.0 7.0 0.00 0.00 3.90 51 1014.1
20260509082100 67 356 0.0 0.0 0.00 0.00 3.90 49 1014.3
20260509081600 66 267 0.0 0.0 0.00 0.00 3.90 56 1014.4
20260509081100 65 267 0.0 0.0 0.00 0.00 3.90 48 1014.3
20260509080600 65 281 0.0 0.0 0.00 0.00 3.90 52 1014.2
20260509080100 64 240 0.0 0.0 0.00 0.00 3.90 56 1014.3
20260509075559 63 280 0.0 0.0 0.00 0.00 3.90 60 1014.3
20260509075059 62 279 0.0 0.0 0.00 0.00 3.90 60 1014.3
20260509074559 62 274 0.0 0.0 0.00 0.00 3.90 59 1014.1
20260509074059 61 292 0.0 0.0 0.00 0.00 3.90 68 1014.4
20260509073559 60 351 0.0 7.0 0.00 0.00 3.90 66 1014.4
20260509073059 59 251 0.0 0.0 0.00 0.00 3.90 74 1014.5
20260509072559 59 268 0.0 0.0 0.00 0.00 3.90 76 1014.5
20260509072059 58 252 0.0 0.0 0.00 0.00 3.90 77 1014.4
20260509071559 57 259 0.0 0.0 0.00 0.00 3.90 80 1014.2
20260509071059 56 239 0.0 0.0 0.00 0.00 3.90 80 1014.3
20260509070559 55 245 0.0 0.0 0.00 0.00 3.90 82 1014.5
20260509070059 54 256 0.0 0.0 0.00 0.00 3.90 85 1014.8
20260509065559 53 264 0.0 0.0 0.00 0.00 3.90 86 1014.4
20260509065059 53 245 0.0 0.0 0.00 0.00 3.90 87 1014.5
20260509064559 52 237 0.0 0.0 0.00 0.00 3.90 87 1014.6
20260509064059 52 238 0.0 0.0 0.00 0.00 3.90 91 1014.6
20260509063559 51 249 0.0 0.0 0.00 0.00 3.90 93 1014.8
20260509063059 51 239 0.0 0.0 0.00 0.00 3.90 93 1014.7
20260509062559 50 261 0.0 0.0 0.00 0.00 3.90 94 1014.8
20260509062058 50 253 0.0 0.0 0.00 0.00 3.90 94 1014.8
20260509061558 49 253 0.0 0.0 0.00 0.00 3.90 94 1014.7
20260509061058 48 253 0.0 0.0 0.00 0.00 3.90 94 1014.6
20260509060559 48 250 0.0 0.0 0.00 0.00 3.90 94 1014.6
20260509060058 47 256 0.0 0.0 0.00 0.00 3.90 94 1014.6
20260509055558 47 258 0.0 0.0 0.00 0.00 3.90 94 1014.7
20260509055058 46 258 0.0 0.0 0.00 0.00 3.90 94 1014.6